Weather History for Bryce Canyon, UT

Change the Weather History Date:

Monday, January 6, 2014

  Actual Average Record
Temperature  
Mean Temperature 19 °F -  
Max Temperature 37 °F 34 °F 52 °F (2001)
Min Temperature 1 °F 7 °F -23 °F (1971)
Degree Days  
Heating Degree Days 46    
Moisture  
Dew Point 2 °F    
Average Humidity 59    
Maximum Humidity 87    
Minimum Humidity 38    
Precipitation  
Precipitation 0.00 in - - ()
Sea Level Pressure  
Sea Level Pressure 30.47 in    
Wind  
Wind Speed 8 mph (WNW)    
Max Wind Speed 17 mph    
Max Gust Speed -    
Visibility 10 miles    
Events      
Averages and records for this station are not official NWS values.
T = Trace of Precipitation, MM = Missing Value Source: NWS Daily Summary

Daily Weather History Graph

Daily Weather History Graph

Search for Another Location

Airport:

Trip Planner

Search our weather history database for the weather conditions in past years. The results will help you decide how hot, cold, wet, or windy it might be!

Date:

Astronomy

Jan. 06, 2014 Rise Set
Actual Time 7:44 AM MST 5:25 PM MST
Civil Twilight 7:15 AM MST 5:54 PM MST
Nautical Twilight 6:42 AM MST 6:26 PM MST
Astronomical Twilight 6:10 AM MST 6:58 PM MST
Moon 11:08 AM MST (1/6) 11:54 PM MST (1/6)
Length of Visible Light 10h 39m
Length of Day
9h 40m
Waxing Crescent, 35% of the Moon is Illuminated
Jan 6
Waxing Crescent
Jan 7
First Quarter
Jan 15
Full
Jan 23
Last Quarter
Jan 30
New

Hourly Weather History & Observations

Time (MST) Temp. Windchill Dew Point Humidity Pressure Visibility Wind Dir Wind Speed Gust Speed Precip Events Conditions
12:53 AM 1.0 °F -15.8 °F -7.1 °F 69% 30.48 in 10.0 mi West 11.5 mph - N/A   Clear
1:53 AM 1.9 °F -14.7 °F -6.0 °F 69% 30.47 in 10.0 mi West 11.5 mph - N/A   Clear
2:53 AM 10.9 °F -6.5 °F -2.9 °F 54% 30.42 in 10.0 mi NW 17.3 mph - N/A   Clear
3:53 AM 6.1 °F -10.2 °F -4.0 °F 63% 30.47 in 10.0 mi West 12.7 mph - N/A   Clear
4:53 AM 3.0 °F -9.3 °F -6.0 °F 66% 30.50 in 10.0 mi West 6.9 mph - N/A   Clear
5:53 AM 8.1 °F -6.2 °F -2.9 °F 61% 30.50 in 10.0 mi WNW 10.4 mph - N/A   Clear
6:53 AM 10.9 °F -4.1 °F -2.9 °F 54% 30.50 in 10.0 mi WNW 12.7 mph - N/A   Clear
7:53 AM 10.0 °F -1.9 °F -4.0 °F 53% 30.53 in 10.0 mi NW 8.1 mph - N/A   Clear
8:53 AM 14.0 °F 3.9 °F -2.9 °F 47% 30.55 in 10.0 mi NNW 6.9 mph - N/A   Clear
9:53 AM 19.0 °F 13.9 °F -2.0 °F 40% 30.55 in 10.0 mi NNE 3.5 mph - N/A   Clear
10:53 AM 21.0 °F 14.6 °F 1.9 °F 44% 30.55 in 10.0 mi ENE 4.6 mph - N/A   Clear
11:53 AM 26.1 °F - 3.9 °F 39% 30.51 in 10.0 mi Calm Calm - N/A   Clear
12:53 PM 28.0 °F - 7.0 °F 41% 30.47 in 10.0 mi Calm Calm - N/A   Clear
1:53 PM 34.0 °F 31.0 °F 10.9 °F 38% 30.42 in 10.0 mi NE 3.5 mph - N/A   Clear
2:53 PM 34.0 °F 31.0 °F 12.9 °F 42% 30.35 in 10.0 mi ENE 3.5 mph - N/A   Clear
3:53 PM 37.0 °F 34.5 °F 14.0 °F 39% 30.36 in 10.0 mi NNE 3.5 mph - N/A   Clear
4:53 PM 25.0 °F - 12.0 °F 58% 30.45 in 10.0 mi Calm Calm - N/A   Clear
5:53 PM 19.9 °F 12.1 °F 7.0 °F 57% 30.44 in 10.0 mi South 5.8 mph - N/A   Clear
6:53 PM 10.9 °F 2.9 °F 5.0 °F 77% 30.49 in 10.0 mi SW 4.6 mph - N/A   Clear
7:53 PM 8.1 °F -4.3 °F 3.9 °F 83% 30.52 in 10.0 mi WSW 8.1 mph - N/A   Clear
8:53 PM 8.1 °F 1.4 °F 3.0 °F 80% 30.49 in 10.0 mi West 3.5 mph - N/A   Clear
9:53 PM 8.1 °F -4.3 °F 3.9 °F 83% 30.45 in 10.0 mi WSW 8.1 mph - N/A   Clear
10:53 PM 7.0 °F -4.5 °F 3.9 °F 87% 30.43 in 10.0 mi WSW 6.9 mph - N/A   Clear
11:53 PM 5.0 °F -6.9 °F 1.0 °F 84% 30.40 in 10.0 mi WSW 6.9 mph - N/A   Clear